Location: Okie-Tex Star Party
(36.8978°N, 102.9520°W)
Time: 10:12:05
(UTC-05:00)

Oscar 16 - Visible Passes

Search period start: 03 September 2015 00:00
Search period end: 13 September 2015 00:00
Orbit: 776 x 790 km, 98.5° (Epoch: 01 September)

Date Brightness Start Highest point End Pass type
(mag) Time Alt. Az. Time Alt. Az. Time Alt. Az.
03 Sep 12.7 04:05:11 10° N 04:06:53 20° NNW 04:06:53 20° NNW visible
04 Sep 13.0 03:33:25 10° N 03:34:52 19° N 03:34:52 19° N visible
05 Sep 13.4 03:02:02 10° NNE 03:02:51 14° NNE 03:02:51 14° NNE visible
05 Sep 12.9 04:42:24 10° NNW 04:43:25 14° NNW 04:43:25 14° NNW visible
06 Sep 12.9 04:10:01 10° N 04:11:24 18° NNW 04:11:24 18° NNW visible
07 Sep 13.1 03:38:09 10° N 03:39:22 18° N 03:39:22 18° N visible
08 Sep 13.4 03:06:42 10° NNE 03:07:21 13° NNE 03:07:21 13° NNE visible
08 Sep 13.0 04:47:22 10° NNW 04:47:55 12° NNW 04:47:55 12° NNW visible
09 Sep 13.0 04:14:50 10° N 04:15:54 15° NNW 04:15:54 15° NNW visible
10 Sep 13.2 03:42:54 10° N 03:43:52 16° N 03:43:52 16° N visible
11 Sep 13.5 03:11:25 10° NNE 03:11:51 12° NNE 03:11:51 12° NNE visible
11 Sep 13.1 04:52:21 10° NNW 04:52:25 10° NNW 04:52:25 10° NNW visible
12 Sep 13.1 04:19:40 10° N 04:20:24 14° NNW 04:20:24 14° NNW visible
